This is the latest recevied weather packets stored in our database for station/object KB1JL-13. If no packets are shown the sender has not sent any weather packets the latest 10 day(s).
| Time | Temp. | Humidity | Pressure | Rain* | Wind** | Luminosity | Snow |
|---|---|---|---|---|---|---|---|
| 1778242640 | 11.67° C | 65% | 1023.4 hPa | 0 mm | - | 266 W/m² | - |
| 1778242339 | 11.67° C | 63% | 1023.7 hPa | 0 mm | - | 244 W/m² | - |
| 1778242035 | 11.67° C | 64% | 1023.7 hPa | 0 mm | - | 239 W/m² | - |
| 1778241734 | 11.11° C | 64% | 1023.7 hPa | 0 mm | - | 226 W/m² | - |
| 1778241431 | 10.56° C | 67% | 1023.4 hPa | 0 mm | - | 207 W/m² | - |
| 1778241128 | 10.56° C | 68% | 1023.4 hPa | 0 mm | - | 201 W/m² | - |
| 1778240825 | 11.11° C | 66% | 1023.4 hPa | 0 mm | - | 184 W/m² | - |
| 1778240522 | 10.56° C | 67% | 1023.4 hPa | 0 mm | - | 175 W/m² | - |
| 1778240218 | 10.56° C | 68% | 1023.4 hPa | 0 mm | - | 162 W/m² | - |
| 1778239917 | 10° C | 70% | 1023 hPa | 0 mm | - | 149 W/m² | - |
| 1778239612 | 10° C | 68% | 1023 hPa | 0 mm | - | 135 W/m² | - |
| 1778239309 | 10° C | 69% | 1023.4 hPa | 0 mm | - | 123 W/m² | - |
| 1778239006 | 10° C | 69% | 1023 hPa | 0 mm | - | 111 W/m² | - |
| 1778238704 | 9.44° C | 70% | 1023.4 hPa | 0 mm | - | 101 W/m² | - |
| 1778238401 | 9.44° C | 69% | 1023.4 hPa | 0 mm | - | 86 W/m² | - |
| 1778238097 | 9.44° C | 70% | 1023 hPa | 0 mm | - | 78 W/m² | - |
| 1778237792 | 8.89° C | 70% | 1023.4 hPa | 0 mm | - | 66 W/m² | - |
| 1778237489 | 8.33° C | 71% | 1023 hPa | 0 mm | - | 58 W/m² | - |
| 1778237187 | 7.78° C | 72% | 1023.4 hPa | 0 mm | - | 40 W/m² | - |
| 1778236883 | 7.78° C | 72% | 1023 hPa | 0 mm | - | 32 W/m² | - |
| 1778236581 | 7.78° C | 71% | 1023 hPa | 0 mm | - | 29 W/m² | - |
| 1778236278 | 7.78° C | 72% | 1022.6 hPa | 0 mm | - | 34 W/m² | - |
| 1778235975 | 7.78° C | 71% | 1022.6 hPa | 0 mm | - | 29 W/m² | - |
| 1778235673 | 7.78° C | 71% | 1022.6 hPa | 0 mm | - | 22 W/m² | - |
| 1778235370 | 7.78° C | 72% | 1022.6 hPa | 0 mm | - | 19 W/m² | - |
* Rain latest hour (hover to see other rain measurements)
** Current wind speed in m/s (hover to see current wind gust speed)